Location: ?????
(32.7281°N, 34.9563°E)
Time: 18:02:06
(UTC+00:00)

Timation 2 Rocket - Pass Details

Date: 29 October 2020
Orbit: 904 x 1077 km, 70.0° (Epoch: 30 November)

Event Time Altitude Azimuth Distance (km) Brightness Sun altitude
Rises 15:50:08 0° 335° (NNW) 3,783 7.3 -12.8°
Reaches altitude 10° 15:52:42 10° 334° (NNW) 2,849 6.7 -13.4°
Maximum altitude 15:59:23 72° 251° (WSW) 1,116 4.5 -14.8°
Drops below altitude 10° 16:06:12 10° 169° (SSE) 2,901 6.4 -16.2°
Sets 16:08:50 0° 167° (SSE) 3,856 7.0 -16.7°
